Regional Weather Roundup
Issued by NWS

Home | Current Version | Previous Version | Graphics & Text | Print | Product List | Glossary On
Versions: 1 2 3 4 5 6 7 8 9 10 11 12 13 14 15 16 17 18 19 20 21 22 23 24 25 26 27 28 29 30 31 32 33 34 35 36 37 38 39 40 41 42 43 44 45 46 47 48 49 50
000
ASUS45 KSLC 220810
RWRUT

UTAH REGIONAL WEATHER ROUNDUP
NATIONAL WEATHER SERVICE SALT LAKE CITY UT
200 AM MDT MON SEP 22 2014

UTZ001>011-023>025-220900-

NORTHERN UTAH

CITY           SKY/WX    TMP DP  RH WIND       PRES   REMARKS
HILL AFB       LGT RAIN  59  52  77 E8        30.17R
LOGAN          MOCLDY    54  54 100 W3        30.16S
OGDEN          TSTM      59  57  93 E3        30.15R
PROVO AIRPORT  CLOUDY    59  54  82 SE8       30.19R
SALT LAKE CITY LGT RAIN  62  59  90 E3        30.14S
VERNAL         PTCLDY    51  49  92 W5        30.24R
WENDOVER       MOCLDY    57  52  82 CALM      30.14S
HEBER CITY     CLOUDY    52  50  93 CALM      30.26R
WEST JORDAN    CLOUDY    61  57  88 SE5       30.16S

$$

UTZ012>022-026-027-220900-

SOUTHERN UTAH

CITY           SKY/WX    TMP DP  RH WIND       PRES   REMARKS
BRYCE CANYON   PTCLDY    49  47  93 W9        30.34R
CEDAR CITY     CLEAR     54  52  93 W3        30.21S
MILFORD        PTCLDY    57  51  80 SE7       30.20R
MOAB/CYNLANDS  CLEAR     61  58  90 SE6       30.16R
PRICE          MOCLDY    56  52  86 N8        30.25R
ST GEORGE      CLOUDY    68  59  73 E5        30.08R
KANAB            N/A     57  57 100 NE3       30.22R

$$

REGIONAL REPORTS     COLORADO/ARIZONA

CITY           SKY/WX    TMP DP  RH WIND       PRES   REMARKS
CRAIG, CO      PTCLDY    57  51  80 E7G18     30.26F
GRAND JUNCTION MOCLDY    62  56  80 E8        30.19F
RIFLE          CLOUDY    59  57  93 S5        30.25F
MONTROSE       LGT RAIN  61  58  90 SE6       30.31R
CORTEZ         LGT RAIN  61  59  93 W5        30.30R
PAGE, AZ       CLEAR     69  58  67 CALM      30.13R
GRAND CANYON   CLEAR     44  41  89 CALM      30.31S
KINGMAN        CLEAR     62  40  44 CALM      30.08S
FLAGSTAFF      CLEAR     50  46  86 CALM      30.33S

$$

REGIONAL REPORTS    NEVADA/IDAHO/WYOMING

CITY           SKY/WX    TMP DP  RH WIND       PRES   REMARKS
LAS VEGAS, NV  CLEAR     82  42  24 SW7       29.94R
ELY            CLOUDY    47  46  97 S7        30.24S
ELKO           PTCLDY    47  42  83 CALM      30.15F
POCATELLO, ID  CLEAR     54  54 100 NW3       30.15R
BURLEY         FOG       52  51  97 CALM      30.10S VSB 1/2
EVANSTON, WY   PTCLDY    46  44  93 SW3       30.28S
ROCK SPRINGS   CLEAR     49  47  93 SW6       30.27S

$$


USA.gov is the U.S. government's official web portal to all federal, state and local government web resources and services.